Regional Weather Roundup
Issued by NWS Grand Forks, ND

Home | Current Version | Previous Version | Graphics & Text | Print | Product List | Glossary On
Versions: 1 2 3 4 5 6 7 8 9 10 11 12 13 14 15 16 17 18 19 20 21 22 23 24 25 26 27 28 29 30 31 32 33 34 35 36 37 38 39 40 41 42 43 44 45 46 47 48 49 50
000
ASUS43 KFGF 230931
RWRFGF
PRAIRIE TO PINES  WEATHER ROUNDUP
NATIONAL WEATHER SERVICE EASTERN NORTH DAKOTA/GRAND FORKS ND
400 AM CDT FRI JUN 23 2017

 **SATELLITE DATA USED TO AUGMENT SKY COVER AT AUTOMATED STATIONS**
 *****  WEATHER ACROSS EASTERN NORTH DAKOTA  *****

CITY           SKY/WX    TMP DP  RH WIND       PRES   REMARKS
GRAND FORKS    CLOUDY    61  54  77 NW18G24   29.71R
GRAND FRKS AFB MOCLDY    60  52  76 NW15G24   29.72R
DEVILS LAKE    CLOUDY    57  51  80 NW24G32   29.80R
FARGO          FAIR      57  48  72 W8        29.74S
WAHPETON ARPT  FAIR      52  45  76 W9        29.78S
$$

 ***** WEATHER ACROSS CENTRAL AND WESTERN NORTH DAKOTA  *****

CITY           SKY/WX    TMP DP  RH WIND       PRES   REMARKS
BISMARCK       CLOUDY    57  47  69 NW20G28   29.96R
MINOT          CLOUDY    55  47  74 NW23G30   29.92S
JAMESTOWN      CLOUDY    58  51  78 NW23G33   29.82R
MINOT AFB      CLOUDY    54  47  75 NW18G30   29.92R
GARRISON         N/A     52  46  80 NW20G32   29.94S
WILLISTON      FAIR      49  44  83 W10       30.07R
DICKINSON      CLOUDY    50  45  83 NW17      30.05R
HETTINGER      CLOUDY    52  43  71 NW21G26   30.09S
$$

 *****  OTHER AIRPORT OBSERVATIONS IN OUR AREA  *****

CITY           SKY/WX    TMP DP  RH WIND       PRES   REMARKS
WALHALLA       NOT AVBL
GRAFTON AIRPOR FAIR      57  54  88 W12       29.74R
VALLEY CITY AR PTSUNNY   59  55  88 NW20G29   29.80R
CANDO          NOT AVBL
CAVALIER APRT  FAIR      57  52  82 NW15G22   29.71R
GWINNER        PTSUNNY   59  52  77 W13G20    29.80S
SHEYENNE NWR     N/A     50  46  86 SW3       29.95S
ROLLA            N/A     54  48  82 NW24G36   29.83R
 ***** THE ABOVE OBSERVATIONS ARE NON NWS ARE NOT QUALITY
       CONTROLLED AND MAY MIS-REPORT RAIN FOR SNOW...
$$

  *****  WEATHER ACROSS NORTHERN MINNESOTA  *****

CITY           SKY/WX    TMP DP  RH WIND       PRES   REMARKS
FLAG ISLAND    CLOUDY    55  52  88 W16G23    29.58R
WARROAD        MOCLDY    52  48  87 W10       29.63R
ROSEAU           N/A     54  48  82 W7        29.65R
HALLOCK        FAIR      55  52  88 NW15      29.69R
THF RVR FALLS  MOCLDY    55  50  82 W13       29.69S
BAUDETTE       CLOUDY    55  50  83 W14       29.60S
WASKISH        FAIR      57  52  82 W21       29.64R
CROOKSTON      FAIR      55  52  88 NW10      29.71R
STEPHEN NDAWN    N/A     55  52  88 NW9         N/A
GREENBUSH NDAW   N/A     54  50  87 W8          N/A
$$
  *****  WEATHER ACROSS CENTRAL AND WEST MINNESOTA  *****

CITY           SKY/WX    TMP DP  RH WIND       PRES   REMARKS
FOSSTON        MOCLDY    54  46  76 W8        29.71R
BEMIDJI        CLOUDY    54  47  75 W8        29.68S
PARK RAPIDS    FAIR      55  43  63 W13       29.71S
ELBOW LAKE     PTSUNNY   54  46  74 NW7       29.78S
WADENA         FAIR      54  46  76 W3        29.73S
DETROIT LAKES  MOCLDY    55  46  71 W12       29.75S
MOORHEAD       FAIR      57  48  72 W13       29.75R
FERGUS FALLS   CLOUDY    55  46  71 W7        29.75S
MORRIS MN      FAIR      55  46  71 NW12      29.78F
STAPLES        FAIR      52  45  76 W7        29.73S
$$
  *****  WEATHER ELSEWHERE ACROSS MINNESOTA  *****

CITY           SKY/WX    TMP DP  RH WIND       PRES   REMARKS
DULUTH         FAIR      54  49  83 W10       29.64S
INTRNTL FALLS  CLOUDY    55  46  71 W7        29.58F
ELY            FAIR      54  43  66 W6        29.61S
CLOQUET        FAIR      55  46  71 W6        29.66S
WHEATON        FAIR      57  46  67 W8        29.81S
BRAINERD       FAIR      59  44  57 NW13      29.71S
HIBBING        FAIR      49  44  83 SW5       29.64S
ALEXANDRIA     FAIR      58  46  64 NW15      29.77S
SAINT CLOUD    FAIR      54  52  93 W8        29.72S
MINNEAPOLIS    FAIR      60  55  83 SW6       29.72F
$$

  *****  WEATHER ACROSS SOUTH DAKOTA  *****

CITY           SKY/WX    TMP DP  RH WIND       PRES   REMARKS
SIOUX FALLS    FAIR      58  49  72 W9        29.85R
BROOKINGS      FAIR      56  46  69 NW10      29.86R
WATERTOWN      FAIR      57  46  66 NW15G24   29.85R
HURON          FAIR      55  46  71 NW9       29.91R
SISSETON         N/A     59  47  64 W15       29.80S
ABERDEEN       FAIR      56  46  69 W10       29.88S
MITCHELL       FAIR      60  43  53 NW16      29.92R
PIERRE         FAIR      57  47  69 NW16      30.00R
MOBRIDGE       CLOUDY    59  48  67 NW24G33   29.95S
RAPID CITY     FAIR      54  37  52 NW20G30   30.13F
$$

  *****  SOME WEATHER IN NEARBY STATES *****

CITY           SKY/WX    TMP DP  RH WIND       PRES   REMARKS
GLASGOW MT     CLOUDY    46  40  79 NW8       30.18R
GREAT FALLS MT FAIR      38  34  85 NW3       30.29R
CHEYENNE WY    CLOUDY    55  48  77 N7        30.23R
SCOTTSBLUFF NE CLOUDY    62  35  36 N17G24    30.17R
OMAHA NE       MOCLDY    66  58  75 NW9       29.80S
DES MOINES IA  CLOUDY    68  64  87 N10G22    29.74S
DAVENPORT IA   FAIR      70  67  90 NW12      29.68R
CHICAGO IL     CLOUDY    77  71  82 SW13      29.64S
EAU CLAIRE WI  FAIR      58  57  97 CALM      29.69F FOG
LA CROSSE WI   FAIR      65  63  93 NW7       29.70F
$$

  *****  SOME NATIONAL WEATHER *****

CITY           SKY/WX    TMP DP  RH WIND       PRES   REMARKS
LA GUARDIA NY  MOCLDY    80  72  76 SW8       29.82S
RALEIGH NC     LGT RAIN  74  73  97 SW10      29.99F
ATLANTA GA     MOCLDY    73  72  96 S7        30.02S
NEW ORLEANS LA MOCLDY    80  77  90 S13       29.87S
OKLAHOMA CITY  FAIR      71  69  93 SW5       29.72F
ALBUQUERQUE NM FAIR      71  21  15 SE10      29.98R
SALT LAKE CITY FAIR      63  41  44 W7        30.08R
LOS ANGELES CA CLOUDY    66  61  84 S5        29.88R
BOISE ID       FAIR      55  36  48 NW6       30.13R
SEATTLE WA     FAIR      61  47  59 N9        30.23F
$$

*** WEATHER ACROSS MANITOBA...SASKATCHEWAN AND ONTARIO ***
                ***ONTARIO***

CITY           SKY/WX    TMP DP  RH WIND       PRES   REMARKS
GERALDTON      MOCLDY    48  48 100 S3        29.51F
THUNDER BAY    MOCLDY    48  46  93 W3        29.54F
SIOUX LOOKOUT  MOCLDY    52  48  87 W3        29.52S
TORONTO        CLOUDY    68  68 100 S3        29.68S
BIG TROUT LK   LGT RAIN  54  52  94 E3        29.53
PICKLE LAKE    NOT AVBL
DRYDEN         CLOUDY    52  50  93 W5        29.52F
KENORA         LGT RAIN  52  52 100 W7        29.55S
$$
                *** MANITOBA***

CITY           SKY/WX    TMP DP  RH WIND       PRES   REMARKS
BRANDON        CLOUDY    54  48  82 NW20G28   29.80R
DAUPHIN        CLOUDY    54  46  76 NW12      29.80R
ISLAND LAKE    MOCLDY    57  54  88 N3        29.55
PILOT MOUND      N/A     54  50  87 NW17G25     N/A
THE PAS        LGT RAIN  48  45  87 NW17G26   29.80R
THOMPSON       CLOUDY    45  41  87 NE14G23   29.75R
WINNIPEG       LGT RAIN  57  55  94 NW13      29.67R
LYNN LAKE      LGT RAIN  43  41  93 NE9       29.88R
GILLAM         CLOUDY    41  37  87 NE17G28   29.74R
$$
                ***SASKATCHEWAN***

CITY           SKY/WX    TMP DP  RH WIND       PRES   REMARKS
ESTEVAN        MOCLDY    46  43  87 NW15      30.00R
KINDERSLEY     PTCLDY    41  36  81 NW7       30.17R
LLOYDMINSTER   CLEAR     39  37  93 W8        30.16S
PRINCE ALBERT  PTCLDY    43  39  87 NW9       30.02F
REGINA         PTCLDY    46  41  81 NW13      30.04S
YORKTON        CLEAR     46  43  87 NW16G23   29.92R
N. BATTLEFORD  CLEAR     39  36  87 NW7       30.15S
LA RONGE       LGT RAIN  43  39  87 NW10G18   30.00F
SASKATOON      CLEAR     39  37  93 W9        30.10S
SWIFT CURRENT  PTCLDY    39  36  87 W9        30.14S
$$
NOTE: THESE ARE AUTOMATED STATIONS WITH LIMITED QUALITY CONTROL
      "FAIR" INDICATES FEW OR NO CLOUDS BELOW 12,000 FEET WITH NO
      SIGNIFICANT WEATHER AND/OR OBSTRUCTIONS TO VISIBILITY.
      SKY/WX - SKY CONDITION AND SIGNIFICANT WEATHER.
      TMP - AIR TEMPERATURE.    DP   - DEWPOINT TEMPERATURE.
      RH  - RELATIVE HUMIDITY.  PRES - PRESSURE.
      HX  - HEAT INDEX.         WCI  - WIND CHILL INDEX.
$



USA.gov is the U.S. government's official web portal to all federal, state and local government web resources and services.